FW2389 Weather Reports


time (UTC)temp
F
wind
direction
speed
knots
gust
knots
rain 1hr
in
rain 24hr
in
rain mn
in
humidity
%
barometer
mb
20260504234014 55 255 13.9 20.9 0.00 0.00 0.00 78 1012.9
20260504233514 55 254 13.0 21.7 0.00 0.00 0.00 77 1012.9
20260504233014 55 252 16.5 23.5 0.00 0.00 0.00 76 1012.8
20260504232513 56 250 16.5 23.5 0.00 0.00 0.00 76 1012.8
20260504232013 56 243 15.6 23.5 0.00 0.00 0.00 75 1012.8
20260504231513 56 244 18.2 22.6 0.00 0.00 0.00 74 1012.7
20260504231014 56 251 14.8 21.7 0.00 0.00 0.00 75 1012.7
20260504230512 56 253 13.9 24.3 0.00 0.00 0.00 75 1012.6
20260504230012 56 246 14.8 24.3 0.00 0.00 0.00 74 1012.7
20260504225512 57 255 14.8 22.6 0.00 0.00 0.00 73 1012.5
20260504225011 57 256 15.6 22.6 0.00 0.00 0.00 73 1012.7
20260504224517 57 243 15.6 26.1 0.00 0.00 0.00 72 1012.9
20260504224010 57 260 15.6 25.2 0.00 0.00 0.00 72 1012.7
20260504223511 57 271 19.1 24.3 0.00 0.00 0.00 71 1012.7
20260504223010 57 257 18.2 25.2 0.00 0.00 0.00 71 1012.7
20260504222510 57 273 18.2 25.2 0.00 0.00 0.00 71 1012.8
20260504222009 57 252 15.6 25.2 0.00 0.00 0.00 71 1012.7
20260504221509 57 256 18.2 27.8 0.00 0.00 0.00 70 1012.8
20260504221009 57 277 18.2 28.7 0.00 0.00 0.00 69 1012.8
20260504220509 58 230 19.1 28.7 0.00 0.00 0.00 69 1012.8
20260504220010 58 282 17.4 25.2 0.00 0.00 0.00 69 1012.8
20260504215512 58 255 17.4 23.5 0.00 0.00 0.00 68 1012.9
20260504215008 58 255 16.5 24.3 0.00 0.00 0.00 68 1012.8
20260504214509 58 259 18.2 24.3 0.00 0.00 0.00 68 1012.9
20260504214012 58 279 16.5 24.3 0.00 0.00 0.00 68 1012.8
20260504213508 58 248 18.2 25.2 0.00 0.00 0.00 68 1012.9
20260504213008 58 269 18.2 29.5 0.00 0.00 0.00 67 1012.8
20260504212507 58 249 21.7 29.5 0.00 0.00 0.00 67 1012.7
20260504212006 57 250 20.0 28.7 0.00 0.00 0.00 67 1012.8
20260504211506 58 255 20.0 28.7 0.00 0.00 0.00 66 1012.8
20260504211006 58 259 20.0 26.9 0.00 0.00 0.00 65 1012.9
20260504210508 58 260 20.0 26.1 0.00 0.00 0.00 64 1013.0
20260504210010 58 239 19.1 29.5 0.00 0.00 0.00 65 1012.8
20260504205505 58 259 18.2 29.5 0.00 0.00 0.00 65 1012.9
20260504205007 58 251 20.9 28.7 0.00 0.00 0.00 65 1012.8
20260504204509 58 248 18.2 26.9 0.00 0.00 0.00 67 1012.9
20260504204004 58 266 20.0 27.8 0.00 0.00 0.00 66 1012.8
20260504203504 59 240 22.6 27.8 0.00 0.00 0.00 62 1012.7
20260504203004 59 255 20.0 26.9 0.00 0.00 0.00 61 1012.7
20260504202506 60 253 20.0 26.1 0.00 0.00 0.00 60 1012.7
20260504202004 60 256 16.5 26.9 0.00 0.00 0.00 60 1012.7
20260504201502 60 259 17.4 26.9 0.00 0.00 0.00 60 1012.8
20260504201003 60 269 17.4 24.3 0.00 0.00 0.00 60 1012.8
20260504200502 60 250 16.5 22.6 0.00 0.00 0.00 59 1012.9
20260504200001 60 274 15.6 25.2 0.00 0.00 0.00 59 1013.0
20260504195601 60 244 15.6 25.2 0.00 0.00 0.00 59 1013.1
20260504195101 60 257 16.5 23.5 0.00 0.00 0.00 59 1013.0
20260504194601 60 256 16.5 23.5 0.00 0.00 0.00 60 1013.0
20260504194100 60 266 17.4 23.5 0.00 0.00 0.00 60 1013.0
20260504193600 60 259 17.4 24.3 0.00 0.00 0.00 61 1013.0
20260504193059 60 247 17.4 24.3 0.00 0.00 0.00 61 1013.1
20260504192559 60 264 16.5 22.6 0.00 0.00 0.00 62 1013.0
20260504192103 60 257 18.2 22.6 0.00 0.00 0.00 60 1013.0
20260504191617 60 250 13.9 21.7 0.00 0.00 0.00 61 1013.0
20260504191059 61 248 15.6 21.7 0.00 0.00 0.00 61 1013.1
20260504190601 60 260 17.4 23.5 0.00 0.00 0.00 61 1013.1
20260504190057 60 249 18.2 23.5 0.00 0.00 0.00 60 1013.1
20260504185557 60 262 17.4 23.5 0.00 0.00 0.00 61 1013.2
20260504185056 60 255 15.6 24.3 0.00 0.00 0.00 60 1013.3
20260504184556 60 259 17.4 24.3 0.00 0.00 0.00 60 1013.2
20260504184056 60 253 16.5 23.5 0.00 0.00 0.00 61 1013.3
20260504183555 60 240 17.4 23.5 0.00 0.00 0.00 61 1013.5
20260504183055 60 245 15.6 23.5 0.00 0.00 0.00 59 1013.4
20260504182553 60 248 17.4 22.6 0.00 0.00 0.00 58 1013.6
20260504182053 61 266 16.5 24.3 0.00 0.00 0.00 57 1013.6
20260504181553 61 261 17.4 24.3 0.00 0.00 0.00 57 1013.6
20260504181053 60 268 16.5 25.2 0.00 0.00 0.00 57 1013.6
20260504180553 61 242 15.6 25.2 0.00 0.00 0.00 56 1013.7
20260504180051 61 256 18.2 23.5 0.00 0.00 0.00 55 1013.7
20260504175551 61 256 18.2 26.1 0.00 0.00 0.00 55 1013.8
20260504175051 60 243 20.0 26.1 0.00 0.00 0.00 56 1013.8
20260504174555 61 246 18.2 25.2 0.00 0.00 0.00 54 1013.8
20260504174051 61 267 16.5 25.2 0.00 0.00 0.00 54 1013.8
20260504173550 61 255 17.4 26.1 0.00 0.00 0.00 54 1013.9
20260504173051 61 257 16.5 26.1 0.00 0.00 0.00 54 1013.9
20260504172549 61 250 16.5 25.2 0.00 0.00 0.00 53 1013.9
20260504172049 61 274 17.4 22.6 0.00 0.00 0.00 53 1014.0
20260504171549 61 265 15.6 22.6 0.00 0.00 0.00 53 1014.0
20260504171048 61 257 13.0 21.7 0.00 0.00 0.00 55 1014.1
20260504170548 61 283 16.5 21.7 0.00 0.00 0.00 52 1014.1
20260504151036 61 328 8.7 17.4 0.00 0.00 0.00 53 1015.1
20260504150536 61 240 13.0 19.1 0.00 0.00 0.00 52 1015.0
20260504141034 60 254 11.3 17.4 0.00 0.00 0.00 54 1015.2
20260504140532 60 262 12.2 17.4 0.00 0.00 0.00 54 1015.2
20260504130526 57 298 5.2 16.5 0.00 0.00 0.00 59 1015.6
20260504110503 52 267 7.0 11.3 0.00 0.00 0.00 59 1015.5
20260504100557 50 278 8.7 13.0 0.00 0.00 0.00 62 1015.2
20260504081547 51 288 9.6 14.8 0.00 0.00 0.00 58 1014.8
20260504081044 51 283 7.0 15.6 0.00 0.00 0.00 58 1014.8
20260504080545 51 279 9.6 15.6 0.00 0.00 0.00 58 1014.7
20260504050527 49 259 2.6 4.3 0.00 0.00 0.00 72 1014.3
20260504045524 50 243 4.3 6.1 0.00 0.00 0.00 73 1014.3
20260504045030 50 252 4.3 6.1 0.00 0.00 0.00 68 1014.3
20260504044523 51 267 3.5 6.1 0.00 0.00 0.00 55 1014.4
20260504044025 50 275 4.3 5.2 0.00 0.00 0.00 55 1014.4
20260504043521 50 279 3.5 4.3 0.00 0.00 0.00 55 1014.3
20260504043021 50 266 2.6 4.3 0.00 0.00 0.00 54 1014.3
20260504042521 50 267 2.6 4.3 0.00 0.00 0.00 53 1014.3
20260504042019 50 280 2.6 4.3 0.00 0.00 0.00 52 1014.2
20260504041519 50 274 2.6 4.3 0.00 0.00 0.00 53 1014.3
20260504041017 50 283 2.6 5.2 0.00 0.00 0.00 54 1014.2
20260504040517 50 271 3.5 5.2 0.00 0.00 0.00 55 1014.2
20260504040015 50 276 3.5 5.2 0.00 0.00 0.00 57 1014.2
20260504035515 49 270 3.5 5.2 0.00 0.00 0.00 63 1014.2
20260504035014 49 280 3.5 5.2 0.00 0.00 0.00 71 1014.2
20260504034514 49 273 2.6 4.3 0.00 0.00 0.00 74 1014.1
20260504034014 49 266 3.5 4.3 0.00 0.00 0.00 77 1014.1
20260504033514 49 264 3.5 4.3 0.00 0.00 0.00 78 1014.0
20260504033014 49 269 2.6 4.3 0.00 0.00 0.00 80 1014.1
20260504032515 49 253 2.6 4.3 0.00 0.00 0.00 79 1014.1
20260504032014 49 248 3.5 6.1 0.00 0.00 0.00 78 1014.1
20260504031514 50 243 3.5 6.1 0.00 0.00 0.00 77 1014.1
20260504031013 50 247 4.3 6.1 0.00 0.00 0.00 76 1014.1
20260504030513 50 245 4.3 6.1 0.00 0.00 0.00 76 1014.1
20260504030015 50 248 4.3 6.1 0.00 0.00 0.00 75 1014.0
20260504025512 49 255 4.3 5.2 0.00 0.00 0.00 75 1014.1
20260504025014 49 260 4.3 5.2 0.00 0.00 0.00 74 1014.0
20260504024512 49 257 4.3 5.2 0.00 0.00 0.00 73 1014.0
20260504024011 49 262 4.3 6.1 0.00 0.00 0.00 72 1014.0
20260504023512 50 257 4.3 6.1 0.00 0.00 0.00 71 1014.0
20260504023011 50 255 3.5 9.6 0.00 0.00 0.00 69 1014.1
20260504022510 50 271 4.3 9.6 0.00 0.00 0.00 65 1014.1
20260504022011 50 257 6.1 7.8 0.00 0.00 0.00 67 1014.0
20260504021511 50 252 6.1 7.0 0.00 0.00 0.00 67 1014.0
20260504021009 50 249 4.3 6.1 0.00 0.00 0.00 69 1014.0
20260504020514 50 260 4.3 5.2 0.00 0.00 0.00 69 1014.0
20260504020011 50 263 4.3 6.1 0.00 0.00 0.00 68 1014.0
20260504015509 50 273 4.3 6.1 0.00 0.00 0.00 68 1014.1
20260504015009 50 259 4.3 6.1 0.00 0.00 0.00 69 1014.0
20260504014508 49 268 4.3 6.1 0.00 0.00 0.00 68 1014.0
20260504014006 50 264 3.5 5.2 0.00 0.00 0.00 68 1013.9
20260504013511 50 264 4.3 6.1 0.00 0.00 0.00 67 1013.8
20260504013007 50 266 4.3 6.1 0.00 0.00 0.00 65 1013.8
20260504012506 50 263 4.3 6.1 0.00 0.00 0.00 65 1013.7
20260504012006 50 276 3.5 5.2 0.00 0.00 0.00 65 1013.7
20260504011505 50 265 3.5 5.2 0.00 0.00 0.00 64 1013.7
20260504011007 50 269 2.6 6.1 0.00 0.00 0.00 65 1013.4
20260504010503 50 277 4.3 6.1 0.00 0.00 0.00 65 1013.5
20260504010003 50 266 4.3 5.2 0.00 0.00 0.00 60 1013.2
20260504005503 50 271 2.6 4.3 0.00 0.00 0.00 55 1013.2
20260504005002 50 278 2.6 4.3 0.00 0.00 0.00 49 1013.3
20260504004505 51 280 2.6 3.5 0.00 0.00 0.00 45 1013.2
20260504004001 51 285 2.6 3.5 0.00 0.00 0.00 44 1013.2
20260504003500 51 290 2.6 4.3 0.00 0.00 0.00 44 1013.0
20260504003109 51 295 2.6 4.3 0.00 0.00 0.00 44 1012.9
20260504002559 51 294 2.6 4.3 0.00 0.00 0.00 47 1012.8
20260504002059 51 298 2.6 4.3 0.00 0.00 0.00 51 1012.8
20260504001602 51 304 2.6 5.2 0.00 0.00 0.00 54 1012.7
20260504001058 51 309 2.6 5.2 0.00 0.00 0.00 55 1012.7
20260504000558 51 319 2.6 4.3 0.00 0.00 0.00 54 1012.6
20260504000104 51 313 2.6 4.3 0.00 0.00 0.00 54 1012.5
20260503235557 51 307 2.6 5.2 0.00 0.00 0.00 55 1012.6
20260503235057 51 302 2.6 5.2 0.00 0.00 0.00 54 1012.5
20260503234557 51 314 3.5 5.2 0.00 0.00 0.00 54 1012.5